Tracking 28052 objects as of 22-Sep-2023
HD Live streaming from Space Station
objects crossing your sky now

STARLINK-5298

Track STARLINK-5298 now!
10-day predictions
STARLINK-5298 is classified as:


NORAD ID: 55281
Int'l Code: 2023-010N
Perigee: 577.1 km
Apogee: 581.3 km
Inclination: 70.0 °
Period: 96.1 minutes
Semi major axis: 6950 km
RCS: Unknown
Launch date: January 19, 2023
Source: United States (US)
Launch site: AIR FORCE WESTERN TEST RANGE (AFWTR)
Your satellite tracking list
Your tracking list is empty




NASA's NSSDC Master Catalog

Two Line Element Set (TLE):
1 55281U 23010N   23264.74702589 -.00000226  00000-0 -11174-4 0  9996
2 55281  70.0003 153.5167 0003088 268.0530  92.0275 14.98328592 37673
Source of the keplerian elements: AFSPC